HULIANGWANG DIGUI-10

导读

HULIANWANG DIGUI-10即卫星互联网低轨01组10星,由中国于2024年12月16日发射,是我国低轨卫星互联网星座组网建设的重要一环。该卫星运行于近地轨道,依托低轨信号损耗小的优势,可提供广域互联通信服务,助力实现全球无缝网络覆盖,填补地面网络在海洋、偏远区域的覆盖空白,推动中国卫星互联网产业加速落地。

基本信息
目录编号:
62332
目录名称:
HULIANWANG DIGUI-10
国际标识:
2024-240K
轨道中心:
EARTH
卫星名称:
HULIANWANG DIGUI-10
卫星全名:
HULIANGWANG DIGUI-10
卫星状态:
在轨 (已飞行634 天)
发射日期:
2024-12-16 UTC
国别 :
中国 (CN)
星等 :
--
轨道信息
数据来源 国际轨道数据 AOE轨道数据
星历时间 2026-09-11T00:26:32+0800
10小时前
查看轨道信息
2026-09-05T12:00:00+0800
5天前
查看轨道信息
半长轴 7546.048km 7546.044km
偏心率 0.0001794 0.000194
轨道倾角 86.504° 86.506°
近地点辐角 87.009° 89.601°
升交点赤经 314.613° 316.473°
平近点角 273.125° 254.268°
近地点 1166.557km 1166.443km
远地点 1169.265km 1169.371km
周期 108.727分钟 108.727分钟
每日圈数 13.244132 13.244142
详细信息
使用方式:
暂无
2D轨道图
3D轨道图
轨道高度分析图
轨道倾角分析图
轨道综合分析图
查看轨道综合分析图
交会数据列表
事件ID 空间交会对象 最接近时刻(TCA) 交会距离 交会风险概率(CRP) 交会风险指数(CRI) 操作
CDM_260911-134000-590706-233227
2026-09-11T
13:40:56+0000
2.431 km
极远距离
1.730591E-6 低风险 0.4
与全量物体交会距离演化趋势
与全量物体交会风险概率演化趋势